Regional Weather Roundup
Issued by NWS Charleston, WV

Home | Current Version | Previous Version | Text Only | Print | Product List | Glossary On
Versions: 1 2 3 4 5 6 7 8 9 10 11 12 13 14 15 16 17 18 19 20 21 22 23 24 25 26 27 28 29 30 31 32 33 34 35 36 37 38 39 40 41 42 43 44 45 46 47 48 49 50
000
ASUS41 KRLX 220710
RWRRLX
Regional Weather Roundup
National Weather Service Charleston WV
300 AM EDT WED AUG 22 2018

Note: "fair" indicates few or no clouds below 12,000 feet with no
significant weather and/or obstructions to visibility.

WVZ003-220800-
Northern Panhandle of West Virginia

CITY           SKY/WX    TMP DP  RH WIND       PRES   REMARKS
WHEELING       CLOUDY    68  66  93 W6        29.86S
$$

WVZ009-220800-
Northwest West Virginia

CITY           SKY/WX    TMP DP  RH WIND       PRES   REMARKS
PARKERSBURG    CLOUDY    71  68  90 W7        29.92S
$$

WVZ006-220800-
Western West Virginia

CITY           SKY/WX    TMP DP  RH WIND       PRES   REMARKS
HUNTINGTON     LGT RAIN  70  67  90 W7        29.92S
$$

WVZ015-220800-
West Central West Virginia

CITY           SKY/WX    TMP DP  RH WIND       PRES   REMARKS
CHARLESTON     MOCLDY    71  69  93 SW10      29.91F
$$

WVZ022-031-220800-
North Central West Virginia

CITY           SKY/WX    TMP DP  RH WIND       PRES   REMARKS
MORGANTOWN     MOCLDY    70  69  97 S5        29.87S
CLARKSBURG     CLOUDY    72  68  87 SW7       29.87F
BUCKHANNON     CLOUDY    70  70 100 SW8       29.90F
$$

WVZ025-035-042-045-220800-
Southern West Virginia

CITY           SKY/WX    TMP DP  RH WIND       PRES   REMARKS
BECKLEY        CLOUDY    66  64  93 W3        29.99F
LOGAN          CLOUDY    70  68  94 SW10      29.96F
PINEVILLE      CLOUDY    69  68  96 MISG      30.02F FOG
BLUEFIELD      CLOUDY    65  64  97 W9G18     30.02F
LEWISBURG      CLOUDY    67  65  94 SW5       29.97F
$$

WVZ047-220800-
Northern Mountains of West Virginia

CITY           SKY/WX    TMP DP  RH WIND       PRES   REMARKS
ELKINS         LGT RAIN  69  64  84 W7        29.92F
$$

WVZ052-220800-
Eastern Panhandle of West Virginia

CITY           SKY/WX    TMP DP  RH WIND       PRES   REMARKS
MARTINSBURG    FAIR      67  66  97 CALM      29.79F
PETERSBURG     CLOUDY    68  67  96 CALM      29.84F FOG
$$

Southeast Ohio/Northeast Kentucky

CITY           SKY/WX    TMP DP  RH WIND       PRES   REMARKS
ATHENS         CLOUDY    69  69 100 SW5       29.89S
ASHLAND        CLOUDY    70  68  94 W8        29.91F
$$



USA.gov is the U.S. government's official web portal to all federal, state and local government web resources and services.